Weather History for Skagway, AK

Change the Weather History Date:

Tuesday, February 11, 2014

  Actual Average Record
Temperature  
Mean Temperature 6 °F -  
Max Temperature 9 °F 33 °F 50 °F (2008)
Min Temperature 3 °F 25 °F -1 °F (1985)
Degree Days  
Heating Degree Days 59    
Moisture  
Dew Point -15 °F    
Average Humidity 37    
Maximum Humidity 42    
Minimum Humidity 33    
Precipitation  
Precipitation 0.00 in - - ()
Sea Level Pressure  
Sea Level Pressure 29.88 in    
Wind  
Wind Speed 21 mph (NNE)    
Max Wind Speed 25 mph    
Max Gust Speed 37 mph    
Visibility 10 miles    
Events      
Averages and records for this station are not official NWS values.
T = Trace of Precipitation, MM = Missing Value Source: NWS Daily Summary

Daily Weather History Graph

Daily Weather History Graph

Search for Another Location

Airport:

Trip Planner

Search our weather history database for the weather conditions in past years. The results will help you decide how hot, cold, wet, or windy it might be!

Date:

Astronomy

Feb. 11, 2014 Rise Set
Actual Time 7:47 AM AKST 4:44 PM AKST
Civil Twilight 7:03 AM AKST 5:28 PM AKST
Nautical Twilight 6:15 AM AKST 6:17 PM AKST
Astronomical Twilight 5:27 AM AKST 7:04 PM AKST
Moon 1:52 PM AKST (2/11) 5:51 AM AKST (2/11)
Length of Visible Light 10h 25m
Length of Day
8h 57m
Waxing Gibbous, 91% of the Moon is Illuminated
Feb 11
Waxing Gibbous
Feb 14
Full
Feb 22
Last Quarter
Feb 28
New
Mar 8
First Quarter

Hourly Weather History & Observations

Time (AKST) Temp. Windchill Dew Point Humidity Pressure Visibility Wind Dir Wind Speed Gust Speed Precip Events Conditions
12:53 AM 8.1 °F -13.0 °F -13.0 °F 38% 30.09 in 10.0 mi NNE 24.2 mph 33.4 mph N/A   Clear
1:53 AM 7.0 °F -13.1 °F -14.1 °F 38% 30.09 in 10.0 mi NNE 20.7 mph 31.1 mph N/A   Clear
3:53 AM 6.1 °F -14.3 °F -14.1 °F 39% 30.06 in 10.0 mi NNE 20.7 mph 34.5 mph N/A   Clear
4:53 AM 5.0 °F -15.7 °F -15.0 °F 39% 30.06 in 10.0 mi North 20.7 mph 33.4 mph N/A   Clear
5:53 AM 5.0 °F -13.0 °F -15.0 °F 39% 30.05 in 10.0 mi North 15.0 mph 25.3 mph N/A   Clear
6:53 AM 5.0 °F -15.2 °F -16.1 °F 37% 30.04 in 10.0 mi North 19.6 mph 31.1 mph N/A   Clear
7:53 AM 5.0 °F -16.2 °F -16.1 °F 37% 30.03 in 10.0 mi NNE 21.9 mph 32.2 mph N/A   Clear
8:53 AM 3.9 °F -19.0 °F -15.0 °F 41% 30.01 in 10.0 mi NNE 25.3 mph 34.5 mph N/A   Clear
9:53 AM 5.0 °F -16.7 °F -15.0 °F 39% 29.99 in 10.0 mi NNE 23.0 mph 36.8 mph N/A   Clear
10:53 AM 6.1 °F -14.8 °F -14.1 °F 39% 29.98 in 10.0 mi NNE 21.9 mph 35.7 mph N/A   Clear
11:53 AM 8.1 °F -12.2 °F -15.0 °F 34% 29.96 in 10.0 mi NE 21.9 mph 32.2 mph N/A   Clear
12:53 PM 9.0 °F -10.0 °F -15.0 °F 33% 29.93 in 10.0 mi NE 19.6 mph 32.2 mph N/A   Clear
1:53 PM 9.0 °F -11.0 °F -15.0 °F 33% 29.89 in 10.0 mi NE 21.9 mph 29.9 mph N/A   Clear
2:53 PM 9.0 °F -10.0 °F -15.0 °F 33% 29.86 in 10.0 mi NNE 19.6 mph 26.5 mph N/A   Clear
3:53 PM 7.0 °F -11.0 °F -15.0 °F 36% 29.82 in 10.0 mi NNE 16.1 mph - N/A   Clear
4:53 PM 7.0 °F -13.6 °F -15.0 °F 36% 29.78 in 10.0 mi NNE 21.9 mph 33.4 mph N/A   Overcast
5:53 PM 7.0 °F -11.6 °F -15.0 °F 36% 29.74 in 10.0 mi NNE 17.3 mph 29.9 mph N/A   Mostly Cloudy
6:53 PM 6.1 °F -14.8 °F -15.0 °F 38% 29.70 in 10.0 mi NE 21.9 mph 33.4 mph N/A   Clear
7:53 PM 6.1 °F -13.3 °F -15.0 °F 38% 29.67 in 10.0 mi NNE 18.4 mph 26.5 mph N/A   Clear
8:53 PM 6.1 °F -13.3 °F -15.0 °F 38% 29.65 in 10.0 mi NNE 18.4 mph 31.1 mph N/A   Clear
9:53 PM 6.1 °F -14.3 °F -15.0 °F 38% 29.62 in 10.0 mi NNE 20.7 mph 27.6 mph N/A   Clear
10:53 PM 6.1 °F -12.8 °F -13.0 °F 41% 29.60 in 10.0 mi NNE 17.3 mph - N/A   Clear
11:53 PM 7.0 °F -10.4 °F -11.9 °F 42% 29.58 in 10.0 mi NNE 15.0 mph 21.9 mph N/A   Clear